Regional Weather Roundup
Issued by NWS

Home | Current Version | Previous Version | Text Only | Print | Product List | Glossary Off
Versions: 1 2 3 4 5 6 7 8 9 10 11 12 13 14 15 16 17 18 19 20 21 22 23 24 25 26 27 28 29 30 31 32 33 34 35 36 37 38 39 40 41 42 43 44 45 46 47 48 49 50

000
ASUS43 KOAX 181602
RWRNE

WEATHER ROUNDUP FOR NEBRASKA
NATIONAL WEATHER SERVICE OMAHA NE
1100 AM CDT WED OCT 18 2017

NOTES: SATELLITE DATA IS BEING USED TO AUGMENT CLOUD COVER ABOVE
       12000 FEET.
       "FAIR" INDICATES FEW OR NO CLOUDS BELOW 12,000 FEET WITH NO
       SIGNIFICANT WEATHER AND/OR OBSTRUCTIONS TO VISIBILITY.


NEZ001>004-019>022-054>056-181700-
NEBRASKA PANHANDLE

CITY           SKY/WX    TMP DP  RH WIND       PRES   REMARKS
SCOTTSBLUFF    SUNNY     63  22  20 NW9       30.10R
ALLIANCE       SUNNY     63  25  23 N12G22    30.08R
CHADRON        SUNNY     62  24  23 NE16G23   30.11R
GORDON         FAIR      62  27  26 N20       30.08R
KIMBALL        SUNNY     67  19  16 NW15      30.14R
SIDNEY         SUNNY     68  20  16 NW18G25   30.10R
$$

NEZ057>060-069>072-079>082-181700-
SOUTHWEST NEBRASKA

CITY           SKY/WX    TMP DP  RH WIND       PRES   REMARKS
NORTH PLATTE   SUNNY     63  39  41 NW9       29.99R
IMPERIAL       CLOUDY    67  25  20 NW9       30.03R
LEXINGTON      CLOUDY    63  37  38 NW15      29.95R
MCCOOK         MOSUNNY   62  36  37 W10       29.98R
OGALLALA       SUNNY     71  21  15 NW14      30.03S
$$

NEZ005>010-023>029-035>040-094-181700-
NORTH CENTRAL NEBRASKA

CITY           SKY/WX    TMP DP  RH WIND       PRES   REMARKS
VALENTINE      SUNNY     65  30  27 N18G24    30.02R
AINSWORTH      SUNNY     63  35  34 N18G31    29.99R
BROKEN BOW     SUNNY     69  31  24 N21G31    29.92R
O`NEILL        SUNNY     64  35  33 N25G33    29.93R
ORD            SUNNY     65  35  33 NW15      29.90R
THEDFORD       SUNNY     68  30  24 N16G28    30.02R
$$

NEZ041-046>049-061>064-073>077-083>087-181700-
SOUTH CENTRAL NEBRASKA

CITY           SKY/WX    TMP DP  RH WIND       PRES   REMARKS
GRAND ISLAND   SUNNY     62  46  55 SW9       29.92R
AURORA         SUNNY     61  46  58 S10       29.92R
HASTINGS       SUNNY     61  44  53 SW7       29.94R
HEBRON         SUNNY     62  47  58 SW9       29.95F
HOLDREGE       CLOUDY    64  40  41 W8        29.94R
KEARNEY        SUNNY     63  40  42 W7        29.94R
YORK           MOSUNNY   61  46  59 SW14      29.94R
$$

NEZ011>018-030>034-042>045-181700-
NORTHEAST NEBRASKA

CITY           SKY/WX    TMP DP  RH WIND       PRES   REMARKS
NORFOLK        MOSUNNY   62  46  55 SW13      29.87R
ALBION         SUNNY     64  45  50 W6        29.90R
BLAIR          SUNNY     63  48  58 S15       29.92S
COLUMBUS       SUNNY     63  47  55 S12       29.90S
FREMONT        SUNNY     62  47  59 S10       29.90F
TEKAMAH        MOSUNNY   63  46  54 S14G22    29.90F
WAYNE          CLOUDY    60  44  56 SW10      29.88R
$$

NEZ050>053-065>068-078-088>093-181700-
SOUTHEAST NEBRASKA

CITY           SKY/WX    TMP DP  RH WIND       PRES   REMARKS
LINCOLN        SUNNY     63  47  55 SW15      29.95R
OMAHA EPPLEY   MOSUNNY   62  47  57 S12       29.94R
BEATRICE       SUNNY     62  48  60 SW16      29.96S
FALLS CITY     SUNNY     63  46  54 S15G23    29.98F
NEBRASKA CITY  SUNNY     63  49  61 S13       29.96S
PLATTSMOUTH    SUNNY     62  49  62 S10       29.96R
$$

NEZ044-045-051>053-067-181700-
OMAHA AREA

CITY           SKY/WX    TMP DP  RH WIND       PRES   REMARKS
OMAHA EPPLEY   MOSUNNY   62  47  57 S12       29.94R
BLAIR          SUNNY     63  48  58 S15       29.92S
FREMONT        SUNNY     62  47  59 S10       29.90F
MILLARD        SUNNY     64  49  59 S7        29.94S
PLATTSMOUTH    SUNNY     62  49  62 S10       29.96R
WAHOO          FAIR      63  46  54 S14       29.92S
$$




USA.gov is the U.S. government's official web portal to all federal, state and local government web resources and services.